Regional Weather Roundup
Issued by NWS Newport/Morehead, NC

Current Version | Previous Version | Graphics & Text | Print | Product List | Glossary Off
Versions: 1 2 3 4 5 6 7 8 9 10 11 12 13 14 15 16 17 18 19 20 21 22 23 24 25 26 27 28 29 30 31 32 33 34 35 36 37 38 39 40 41 42 43 44 45 46 47 48 49 50

000
ASUS42 KMHX 292325
RWRMHX
WEATHER ROUNDUP FOR EASTERN NORTH CAROLINA
NATIONAL WEATHER SERVICE NEWPORT/MOREHEAD CITY NC
700 PM EDT FRI MAY 29 2015

NOTE: "FAIR" INDICATES FEW OR NO CLOUDS BELOW 12,000 FEET
WITH NO SIGNIFICANT WEATHER AND/OR OBSTRUCTIONS TO VISIBILITY

NCZ015>017-031-032-045>047-102-103-300000-
NORTH COAST

CITY           SKY/WX    TMP DP  RH WIND       PRES   REMARKS
EDENTON        MOSUNNY   77  70  78 E8        30.20S
ELIZABETH CITY SUNNY     77  67  71 E13       30.21S
KITTY HAWK     CLEAR     75  69  81 E6        30.21S
MANTEO         SUNNY     75  69  81 SE7       30.23R

$$

NCZ045>047-081-094-103-104-300000-
CENTRAL COAST

CITY           SKY/WX    TMP DP  RH WIND       PRES   REMARKS
FRISCO         SUNNY     78  66  66 SE7       30.22S
SWANQUARTER      N/A     79 N/A N/A SE9G16    30.18S

$$

NCZ095-097-098-100-101-300000-
SOUTHERN COAST

CITY           SKY/WX    TMP DP  RH WIND       PRES   REMARKS
BEAUFORT       SUNNY     77  69  76 SE8       30.20S
CEDAR ISLAND     N/A     77 N/A N/A E10       30.24S
JACKSONVILLE   SUNNY     79  66  64 SE10      30.19S
PINEY ISLAND   CLEAR    N/A N/A N/A SE13      30.20S
WILMINGTON     PTSUNNY   79  65  62 SE10      30.18F


$$

NCZ011>013-027>030-043-044-078>080-089-090>093-098-300000-
COASTAL PLAIN

CITY           SKY/WX    TMP DP  RH WIND       PRES   REMARKS
AHOSKIE        SUNNY     79  65  62 SE5       30.19R
CLINTON        SUNNY     83  66  56 S3        30.17R
ELIZABETHTOWN  SUNNY     82  63  51 SE5       30.17R
GOLDSBORO      SUNNY     83  65  52 SE9       30.14S
GREENVILLE     SUNNY     82  66  57 SE7       30.19S
HAVELOCK       MOSUNNY   79  66  64 S9        30.20S
KENANSVILLE    SUNNY     80  63  56 SE3       30.18R
KINSTON        MOSUNNY   81  64  57 SE6       30.18S
NEW BERN       SUNNY     80  66  62 VRB5      30.20S
RICHLANDS      SUNNY     79  64  61 SE10G16   30.20R
ROCKY MOUNT    MOSUNNY   85  60  42 VRB5      30.17S
WASHINGTON     SUNNY     79  67  67 SE8       30.20R
WHITEVILLE     PTSUNNY   80  66  62 S5        30.17R

$$

AMZ130-135-150-152-154-156-158-170-250-252-270-ANZ085-086-088-633-658-670-300000-
MARINE OBSERVATIONS

STATION/POSITION TIME  TEMP    WIND        PRES    WAVE   SWELL
                       AIR SEA DIR/SP/G            HT/PER HT/PER
                 (UTC) (F)     (DEG/KT/KT) (MB)    (FT/S) (FT/S)
CHESAPEAKE LIGHT 2300   69     130/ 17/ 18 1023.8
64 E VA BEACH    2250   71 69   90/  6/  6 1023.6    3/ 9   3/ 9
DUCK             2300   73 62  100/ 10/ 10 1022.5
2 E DUCK         2211      68                N/A     2/ 9
OREGON INLET     2300   75 80   90/  7/ 10 1023.4
13E OREGON INLT  2300      76                N/A     3/ 8   2/11
HATTERAS CG      2300   78 79  110/  6/  8 1022.9
DIAMOND BUOY     2250   77 80  120/  8/ 10 1023.3    3/ 8   3/ 8
CAPE LOOKOUT     2300   76     110/  9/ 10 1022.5
BEAUFORT LAB     2300   77 76  110/ 10/ 13 1022.0
27 SE WRIGHTSVLE 2300      76  120/  4/  6   N/A
5 SE WRIGHTSVLE  2208   77 78  160/ 10/ 14 1021.8
225 S CAPE HAT   2150   76 75   90/ 12/ 14 1021.4    6/ 9   5/ 9
41 SE CHARLESTON 2250   78 79   80/ 10/ 14 1020.6    4/ 8   3/ 8

$$


USA.gov is the U.S. government's official web portal to all federal, state and local government web resources and services.